COSMOS 1275 DEB, 42158

Orbit data source: Space-Track

COSMOS 1275 DEB, 42158 is space debris in LEO originally from a launch on Thu, 04 Jun 1981 UTC launched from the Plesetsk Missile And Space Complex (PKMTR). Debris objects in space refer to the collection of defunct objects orbiting the Earth. Examples of debris include non-operational satellites, rocket bodies, and fragments generated from explosions, collisions, or faulty payload assembly.

Loading next visibility...
Identifier
42158, 1981-053RW
Orbit
LEO
Country
Flag of CISCIS
Related business
Manufacturer
Unknown
Mission
Spacecraft
Bus & Motor
Unknown
Mass
Unknown
Launch date (UTC)
1981-06-04 (45 years ago)
Launch vehicle
Unknown
Launch site
Plesetsk Missile And Space Complex (PKMTR)
Object type
Payload
Rocket body
Debris
Shape & HBR
Unknown shape, 0.1 m
Radar Cross Section
Small (<0.1 m²)

Expand to show TLE details & history
Last TLE update: 6 days ago

TLE from 6 days ago
0 COSMOS 1275 DEB
1 42158U 81053RW  25335.73214981  .00001746  00000-0  15657-2 0  9994
2 42158  83.0061 328.3980 0099797 247.2091 292.6868 13.81517687604120
Epoch: 2025-12-01T17:34Z
TLE epoch observation values (Epoch: 2025-12-01T17:34:17.743Z)
Latitude
1.04662°
Longitude
173.8689°
Altitude
933.67 km
Speed
7.399 km/s
True Right ascension
09h 53m 04s
True Declination
1° 02' 26"
Sunlit
Object was in daylight at epoch
Visualization orbit readout
Latitude
Unknown
Longitude
Unknown
Altitude
Unknown
Speed
Unknown
Apparent Right ascension
Unknown
Apparent Declination
Unknown
Sunlit
N/A
Visualization observer readout
Local Sidereal Time
11:41:59
Azimuth
Unknown
Elevation
Unknown
Doppler factor
Unknown
Orbital elements
Apogee altitude
1,028.835 km
Perigee altitude
882.457 km
Semi-major axis
7,333.783 km
Eccentricity
0.00998
Inclination
83.0061°
RAAN
328.398°
Arg. of periapsis
247.2091°
True anomaly
291.62665°
Mean anomaly
292.6868°
Eccentric anomaly
292.15723°
Mean motion
3.45582 °/min
Orbital period
104.17 mins
BSTAR
0.0015657
Loading maneuver chart data...
Computing Atmospheric mass density...

Documentation

Showing up to 5 results
|